Regional Weather Roundup
Issued by NWS Albany, NY

Home | Current Version | Previous Version | Text Only | Print | Product List | Glossary On
Versions: 1 2 3 4 5 6 7 8 9 10 11 12 13 14 15 16 17 18 19 20 21 22 23 24 25 26 27 28
000
ASUS41 KALY 240410
RWRALY

NEW YORK STATE HOURLY WEATHER ROUNDUP
NATIONAL WEATHER SERVICE ALBANY NY
1100 PM EST FRI FEB 23 2018

NOTE: "FAIR" INDICATES FEW OR NO CLOUDS BELOW 12,000 FEET WITH NO
SIGNIFICANT WEATHER AND/OR NO OBSTRUCTIONS TO VISIBILITY.

NYZ032-033-038>043-046>054-057>066-NYZ062>081-082-084-240500-
EAST


CITY           SKY/WX    TMP DP  RH WIND       PRES   REMARKS
ALBANY         CLOUDY    36  32  85 S13       30.11F WCI  27
GLENS FALLS    CLOUDY    34  34 100 S9        30.09F FOG     WCI  27
POUGHKEEPSIE   CLOUDY    36  35  96 CALM      30.17F FOG
NEWBURGH       CLOUDY    37  37 100 VRB7      30.17F FOG     WCI  32
MONTGOMERY     FOG       35  34  96 CALM      30.15F VSB 1/2
WHITE PLAINS   FOG       38  38 100 VRB5      30.17F VSB 1/4 WCI  34
ISLIP          FOG       39  39 100 W7        30.18F VSB 1/2 WCI  34
NEW YORK CITY  CLOUDY    43  39  86 SW12      30.19F
CENTRAL PARK   CLOUDY    41  39  93 W10G18    30.21
$$

NYZ005>009-017-018-044>046-055-056-240500-
CENTRAL


CITY           SKY/WX    TMP DP  RH WIND       PRES   REMARKS
FULTON         LGT RAIN  43  42  97 W8        30.11R FOG
SYRACUSE       CLOUDY    47  46  97 W10       30.09R
ROME           LGT RAIN  38  37  97 NE5       30.10R FOG     WCI  34
ELMIRA         CLOUDY    37  37 100 CALM      30.14R
BINGHAMTON     FOG       36  36 100 W5        30.11S VSB 1/4 WCI  32
MONTICELLO     FOG       32  32 100 CALM      30.15F VSB 1/2
$$

NYZ026>034-041>043-087-240500-
NORTH


CITY           SKY/WX    TMP DP  RH WIND       PRES   REMARKS
WATERTOWN      LGT RAIN  41  41 100 SW12G22   30.08R FOG
FORT DRUM      NOT AVBL
OGDENSBURG     CLOUDY    42  41  97 SW8       30.03R
MASSENA        CLOUDY    41  41 100 SW12      30.01R FOG
SARANAC LAKE   CLOUDY    38  38 100 SW9       29.95F FOG     WCI  31
PLATTSBURGH    CLOUDY    36  32  85 SE14      29.97F WCI  27
$$

NYZ001>004-010>016-019>021-085-240500-
WEST


CITY           SKY/WX    TMP DP  RH WIND       PRES   REMARKS
NIAGARA FALLS  CLOUDY    43  40  89 SW9       30.13S FOG
BUFFALO        DRZL/FOG  40  40 100 SW12      30.14S VSB 1/2 WCI  33
DUNKIRK        CLOUDY    44  43  96 SW12      30.17S
JAMESTOWN      MIX PCPN N/A N/A N/A MISG        N/A
WELLSVILLE     CLOUDY    48  47  96 W15G23    30.12S FOG
ROCHESTER      CLOUDY    47  45  93 NW13G23   30.13R
PENN YAN       CLOUDY    43  39  86 SW12      30.10S
$$

             KEY
       WCI = WIND CHILL INDEX
       VSB = VISIBILITY
       HX  = HEAT INDEX
$$




USA.gov is the U.S. government's official web portal to all federal, state and local government web resources and services.